Data No, UTC Date,UTC Time,Latitude,Longitude,Course(deg),Temp(degC),Sal(psu),pH
560,11/11/2019,9:19,42-36.95N,141-37.08E,208,11.472,,7.92
561,11/11/2019,9:20,42-36.72N,141-36.87E,212,11.439,,7.92
562,11/11/2019,9:21,42-36.50N,141-36.80E,185,11.394,,7.93
563,11/11/2019,9:22,42-36.26N,141-36.86E,165,11.587,,7.94
564,11/11/2019,9:23,42-36.02N,141-36.96E,161,11.889,,7.95
565,11/11/2019,9:24,42-35.78N,141-37.08E,158,12.086,,7.96
566,11/11/2019,9:25,42-35.54N,141-37.23E,154,12.183,,7.97
567,11/11/2019,9:26,42-35.30N,141-37.39E,153,12.191,,7.98
568,11/11/2019,9:27,42-35.05N,141-37.56E,153,12.437,,7.99
569,11/11/2019,9:28,42-34.79N,141-37.72E,155,12.536,,8
570,11/11/2019,9:29,42-34.54N,141-37.88E,155,12.631,,8
571,11/11/2019,9:30,42-34.27N,141-38.03E,156,12.7,,8.01
572,11/11/2019,9:31,42-34.00N,141-38.20E,155,12.703,,8.01
573,11/11/2019,9:32,42-33.73N,141-38.36E,155,12.64,,8.01
574,11/11/2019,9:33,42-33.44N,141-38.53E,155,12.675,,8.01
575,11/11/2019,9:34,42-33.18N,141-38.69E,156,12.722,,8.01
576,11/11/2019,9:35,42-32.90N,141-38.86E,156,12.766,,8.01
577,11/11/2019,9:36,42-32.62N,141-39.03E,156,12.884,,8.01
578,11/11/2019,9:37,42-32.34N,141-39.20E,153,12.938,,8.02
579,11/11/2019,9:38,42-32.07N,141-39.42E,148,12.888,,8.02
580,11/11/2019,9:39,42-31.80N,141-39.66E,146,12.824,,8.02
581,11/11/2019,9:40,42-31.55N,141-39.88E,145,12.752,,8.02
582,11/11/2019,9:41,42-31.28N,141-40.12E,145,12.7,,8.02
583,11/11/2019,9:42,42-31.02N,141-40.38E,142,12.671,,8.02
584,11/11/2019,9:43,42-30.80N,141-40.69E,131,12.726,,8.02
585,11/11/2019,9:44,42-30.59N,141-41.05E,126,12.691,,8.02
586,11/11/2019,9:45,42-30.40N,141-41.41E,125,12.643,,8.02
587,11/11/2019,9:46,42-30.21N,141-41.78E,124,12.623,,8.02
588,11/11/2019,9:47,42-30.03N,141-42.13E,124,12.58,,8.02
589,11/11/2019,9:48,42-29.84N,141-42.52E,123,12.537,,8.02
590,11/11/2019,9:49,42-29.63N,141-42.94E,123,12.485,,8.01
591,11/11/2019,9:50,42-29.46N,141-43.28E,123,12.464,,8.01
592,11/11/2019,9:51,42-29.28N,141-43.67E,123,12.838,,8.01
593,11/11/2019,9:52,42-29.10N,141-44.04E,123,13.293,,8.01
594,11/11/2019,9:53,42-28.92N,141-44.42E,122,13.524,,8.01
595,11/11/2019,9:54,42-28.73N,141-44.81E,123,13.658,,8.01
596,11/11/2019,9:55,42-28.54N,141-45.20E,123,13.787,,8.01
597,11/11/2019,9:56,42-28.36N,141-45.58E,122,13.9,,8.02
598,11/11/2019,9:57,42-28.17N,141-45.96E,123,13.962,,8.03
599,11/11/2019,9:58,42-27.98N,141-46.35E,123,14.006,,8.03
600,11/11/2019,9:59,42-27.80N,141-46.73E,123,14.022,,8.03
601,11/11/2019,10:00,42-27.60N,141-47.14E,122,14.031,,8.04
602,11/11/2019,10:01,42-27.42N,141-47.51E,123,14.022,,8.04
603,11/11/2019,10:02,42-27.23N,141-47.90E,123,14.024,,8.04
604,11/11/2019,10:03,42-27.04N,141-48.28E,123,14.049,,8.03
605,11/11/2019,10:04,42-26.85N,141-48.67E,123,14.07,,8.04
606,11/11/2019,10:05,42-26.66N,141-49.06E,123,14.066,,8.03
607,11/11/2019,10:06,42-26.47N,141-49.44E,124,14.074,,8.03
608,11/11/2019,10:07,42-26.26N,141-49.86E,124,14.065,,8.04
609,11/11/2019,10:08,42-26.07N,141-50.23E,124,14.073,,8.04
610,11/11/2019,10:09,42-25.87N,141-50.63E,124,14.057,,8.04
611,11/11/2019,10:10,42-25.69N,141-50.98E,124,14.047,,8.04
612,11/11/2019,10:11,42-25.50N,141-51.36E,124,---,,8.04
613,11/11/2019,10:12,42-25.31N,141-51.74E,124,14.038,,8.04
614,11/11/2019,10:13,42-25.11N,141-52.13E,124,14.046,,8.04
615,11/11/2019,10:14,42-24.91N,141-52.52E,124,14.039,,8.04
616,11/11/2019,10:15,42-24.71N,141-52.92E,124,14.008,,8.04
617,11/11/2019,10:16,42-24.52N,141-53.29E,125,13.965,,8.04
618,11/11/2019,10:17,42-24.32N,141-53.68E,124,13.906,,8.04
619,11/11/2019,10:18,42-24.11N,141-54.08E,124,13.826,,8.04
620,11/11/2019,10:19,42-23.91N,141-54.48E,124,13.815,,8.04
621,11/11/2019,10:20,42-23.72N,141-54.84E,124,13.753,,8.04
622,11/11/2019,10:21,42-23.52N,141-55.23E,124,13.651,,8.03
623,11/11/2019,10:22,42-23.33N,141-55.63E,124,13.653,,8.03
624,11/11/2019,10:23,42-23.12N,141-56.04E,124,13.645,,8.04
625,11/11/2019,10:24,42-22.93N,141-56.42E,125,13.534,,8.04
626,11/11/2019,10:25,42-22.73N,141-56.81E,123,13.35,,8.03
627,11/11/2019,10:26,42-22.52N,141-57.21E,125,13.381,,8.03
628,11/11/2019,10:27,42-22.33N,141-57.58E,124,13.357,,8.03
629,11/11/2019,10:28,42-22.13N,141-57.97E,124,13.315,,8.03
630,11/11/2019,10:29,42-21.94N,141-58.38E,122,13.302,,8.03
631,11/11/2019,10:30,42-21.76N,141-58.78E,120,13.365,,8.03
632,11/11/2019,10:31,42-21.59N,141-59.20E,117,13.225,,8.02
633,11/11/2019,10:32,42-21.43N,141-59.61E,118,13.162,,8.02
634,11/11/2019,10:33,42-21.26N,142-00.05E,117,13.151,,8.02
635,11/11/2019,10:34,42-21.10N,142-00.44E,118,13.281,,8.03
636,11/11/2019,10:35,42-20.94N,142-00.84E,118,13.33,,8.02
637,11/11/2019,10:36,42-20.78N,142-01.24E,118,13.358,,8.02
638,11/11/2019,10:37,42-20.61N,142-01.66E,118,13.411,,8.02
639,11/11/2019,10:38,42-20.45N,142-02.05E,119,13.458,,8.02
640,11/11/2019,10:39,42-20.29N,142-02.45E,119,13.483,,8.02
641,11/11/2019,10:40,42-20.12N,142-02.85E,119,13.479,,8.02
642,11/11/2019,10:41,42-19.96N,142-03.25E,119,13.451,,8.01
643,11/11/2019,10:42,42-19.79N,142-03.65E,119,13.329,,8.01
644,11/11/2019,10:43,42-19.62N,142-04.06E,119,13.184,,8.01
645,11/11/2019,10:44,42-19.43N,142-04.52E,119,13.046,,8.01
646,11/11/2019,10:45,42-19.28N,142-04.88E,119,12.964,,8.01
647,11/11/2019,10:46,42-19.12N,142-05.27E,118,12.913,,8.01
648,11/11/2019,10:47,42-18.95N,142-05.69E,118,12.912,,8.01
649,11/11/2019,10:48,42-18.79N,142-06.09E,118,12.904,,8
650,11/11/2019,10:49,42-18.62N,142-06.51E,118,12.939,,8
651,11/11/2019,10:50,42-18.46N,142-06.92E,117,12.97,,8.01
652,11/11/2019,10:51,42-18.30N,142-07.34E,117,13.056,,8.01
653,11/11/2019,10:52,42-18.15N,142-07.76E,115,13.824,,8.01
654,11/11/2019,10:53,42-17.99N,142-08.19E,115,14.863,,8.01
655,11/11/2019,10:54,42-17.84N,142-08.59E,118,15.495,,8.01
656,11/11/2019,10:55,42-17.67N,142-08.98E,121,15.773,,8.01
657,11/11/2019,10:56,42-17.48N,142-09.38E,122,15.845,,8.02
658,11/11/2019,10:57,42-17.29N,142-09.79E,122,15.792,,8.03
659,11/11/2019,10:58,42-17.12N,142-10.17E,122,15.849,,8.03
660,11/11/2019,10:59,42-16.94N,142-10.55E,121,15.905,,8.04
661,11/11/2019,11:00,42-16.75N,142-10.95E,122,15.975,,8.04
662,11/11/2019,11:01,42-16.58N,142-11.33E,122,16.071,,8.04
663,11/11/2019,11:02,42-16.39N,142-11.73E,122,16.086,,8.04
664,11/11/2019,11:03,42-16.19N,142-12.15E,123,16.139,,8.04
665,11/11/2019,11:04,42-16.01N,142-12.50E,123,16.184,,8.04
666,11/11/2019,11:05,42-15.83N,142-12.91E,121,16.192,,8.04
667,11/11/2019,11:06,42-15.65N,142-13.30E,120,16.199,,8.04
668,11/11/2019,11:07,42-15.48N,142-13.70E,120,16.226,,8.04
669,11/11/2019,11:08,42-15.31N,142-14.11E,118,16.239,,8.04
670,11/11/2019,11:09,42-15.17N,142-14.52E,114,16.257,,8.04
671,11/11/2019,11:10,42-15.03N,142-14.94E,112,16.26,,8.04
672,11/11/2019,11:11,42-14.88N,142-15.36E,118,16.256,,8.04
673,11/11/2019,11:12,42-14.70N,142-15.76E,121,16.263,,8.04
674,11/11/2019,11:13,42-14.51N,142-16.13E,126,16.277,,8.04
675,11/11/2019,11:14,42-14.30N,142-16.50E,126,16.288,,8.04
676,11/11/2019,11:15,42-14.08N,142-16.86E,130,16.291,,8.04
677,11/11/2019,11:16,42-13.86N,142-17.20E,132,16.299,,8.04
678,11/11/2019,11:17,42-13.63N,142-17.53E,132,16.297,,8.04
679,11/11/2019,11:18,42-13.41N,142-17.90E,127,16.291,,8.04
680,11/11/2019,11:19,42-13.22N,142-18.25E,125,16.284,,8.04
681,11/11/2019,11:20,42-13.03N,142-18.64E,122,16.271,,8.04
682,11/11/2019,11:21,42-12.85N,142-19.03E,121,16.264,,8.04
683,11/11/2019,11:22,42-12.67N,142-19.42E,121,16.254,,8.04
684,11/11/2019,11:23,42-12.49N,142-19.81E,121,16.241,,8.04
685,11/11/2019,11:24,42-12.30N,142-20.23E,121,16.234,,8.04
686,11/11/2019,11:25,42-12.13N,142-20.60E,121,16.22,,8.04
687,11/11/2019,11:26,42-11.95N,142-21.00E,121,16.195,,8.04
688,11/11/2019,11:27,42-11.77N,142-21.41E,121,16.179,,8.04
689,11/11/2019,11:28,42-11.58N,142-21.82E,122,16.169,,8.04
690,11/11/2019,11:29,42-11.41N,142-22.20E,121,16.135,,8.04
691,11/11/2019,11:30,42-11.23N,142-22.57E,121,16.101,,8.04
692,11/11/2019,11:31,42-11.05N,142-22.98E,122,16.056,,8.04
693,11/11/2019,11:32,42-10.87N,142-23.36E,122,15.993,,8.04
694,11/11/2019,11:33,42-10.69N,142-23.75E,122,15.91,,8.04
695,11/11/2019,11:34,42-10.51N,142-24.14E,122,15.81,,8.04
696,11/11/2019,11:35,42-10.32N,142-24.54E,122,15.704,,8.04
697,11/11/2019,11:36,42-10.14N,142-24.92E,122,15.599,,8.04
698,11/11/2019,11:37,42-09.96N,142-25.31E,122,15.521,,8.04
699,11/11/2019,11:38,42-09.78N,142-25.70E,121,15.427,,8.04
700,11/11/2019,11:39,42-09.59N,142-26.10E,121,15.39,,8.04
701,11/11/2019,11:40,42-09.42N,142-26.48E,120,15.39,,8.04
702,11/11/2019,11:41,42-09.25N,142-26.87E,120,15.497,,8.04
703,11/11/2019,11:42,42-09.08N,142-27.27E,120,15.609,,8.04
704,11/11/2019,11:43,42-08.90N,142-27.66E,120,15.69,,8.04
705,11/11/2019,11:44,42-08.73N,142-28.06E,120,15.833,,8.04
706,11/11/2019,11:45,42-08.54N,142-28.49E,120,15.974,,8.04
707,11/11/2019,11:46,42-08.37N,142-28.86E,120,16.011,,8.04
708,11/11/2019,11:47,42-08.21N,142-29.24E,120,16.028,,8.04
709,11/11/2019,11:48,42-08.03N,142-29.64E,120,16.051,,8.04
710,11/11/2019,11:49,42-07.85N,142-30.05E,121,16.082,,8.04
711,11/11/2019,11:50,42-07.68N,142-30.42E,121,16.114,,8.04
712,11/11/2019,11:51,42-07.50N,142-30.82E,121,16.152,,8.04
713,11/11/2019,11:52,42-07.31N,142-31.23E,121,16.194,,8.04
714,11/11/2019,11:53,42-07.14N,142-31.60E,121,16.225,,8.04
715,11/11/2019,11:54,42-06.95N,142-32.01E,121,16.231,,8.04
716,11/11/2019,11:55,42-06.78N,142-32.40E,121,16.227,,8.04
717,11/11/2019,11:56,42-06.60N,142-32.79E,121,16.22,,8.04
718,11/11/2019,11:57,42-06.42N,142-33.19E,121,16.226,,8.04
719,11/11/2019,11:58,42-06.24N,142-33.59E,121,16.244,,8.04
720,11/11/2019,11:59,42-06.05N,142-34.00E,121,16.256,,8.04
721,11/11/2019,12:00,42-05.88N,142-34.37E,121,16.259,,8.04
722,11/11/2019,12:01,42-05.70N,142-34.76E,121,16.262,,8.04
723,11/11/2019,12:02,42-05.53N,142-35.14E,121,16.259,,8.05
724,11/11/2019,12:03,42-05.34N,142-35.55E,121,16.264,,8.05
725,11/11/2019,12:04,42-05.18N,142-35.92E,121,16.272,,8.04
726,11/11/2019,12:05,42-04.99N,142-36.31E,122,16.282,,8.05
727,11/11/2019,12:06,42-04.80N,142-36.72E,121,16.288,,8.04
728,11/11/2019,12:07,42-04.63N,142-37.08E,121,16.299,,8.04
729,11/11/2019,12:08,42-04.45N,142-37.48E,121,16.314,,8.04
730,11/11/2019,12:09,42-04.28N,142-37.86E,121,16.34,,8.04
731,11/11/2019,12:10,42-04.10N,142-38.26E,121,16.347,,8.05
732,11/11/2019,12:11,42-03.91N,142-38.67E,121,16.354,,8.05
733,11/11/2019,12:12,42-03.74N,142-39.04E,121,16.356,,8.05
734,11/11/2019,12:13,42-03.56N,142-39.43E,121,16.356,,8.04
735,11/11/2019,12:14,42-03.37N,142-39.83E,121,16.353,,8.05
736,11/11/2019,12:15,42-03.19N,142-40.22E,121,16.346,,8.05
737,11/11/2019,12:16,42-03.00N,142-40.63E,121,16.339,,8.05
738,11/11/2019,12:17,42-02.83N,142-41.02E,121,16.335,,8.05
739,11/11/2019,12:18,42-02.64N,142-41.42E,121,16.338,,8.05
740,11/11/2019,12:19,42-02.47N,142-41.80E,121,16.338,,8.05
741,11/11/2019,12:20,42-02.28N,142-42.21E,120,16.331,,8.05
742,11/11/2019,12:21,42-02.11N,142-42.59E,121,16.329,,8.05
743,11/11/2019,12:22,42-01.92N,142-42.99E,121,16.333,,8.05
744,11/11/2019,12:23,42-01.73N,142-43.40E,121,16.337,,8.05
745,11/11/2019,12:24,42-01.56N,142-43.78E,121,16.343,,8.05
746,11/11/2019,12:25,42-01.36N,142-44.20E,122,16.341,,8.05
747,11/11/2019,12:26,42-01.18N,142-44.60E,121,16.341,,8.05
748,11/11/2019,12:27,42-00.99N,142-45.02E,121,16.334,,8.05
749,11/11/2019,12:28,42-00.83N,142-45.36E,121,16.329,,8.05
750,11/11/2019,12:29,42-00.63N,142-45.78E,121,16.319,,8.05
751,11/11/2019,12:30,42-00.45N,142-46.18E,122,16.304,,8.05
752,11/11/2019,12:31,42-00.27N,142-46.56E,121,16.295,,8.05
753,11/11/2019,12:32,42-00.09N,142-46.96E,121,16.294,,8.05
754,11/11/2019,12:33,41-59.91N,142-47.35E,121,16.288,,8.05
755,11/11/2019,12:34,41-59.72N,142-47.75E,121,16.276,,8.05
756,11/11/2019,12:35,41-59.54N,142-48.16E,121,16.268,,8.05
757,11/11/2019,12:36,41-59.35N,142-48.56E,122,16.269,,8.05
758,11/11/2019,12:37,41-59.16N,142-48.97E,122,16.221,,8.05
759,11/11/2019,12:38,41-58.98N,142-49.34E,122,16.053,,8.05
760,11/11/2019,12:39,41-58.78N,142-49.75E,122,15.877,,8.05
761,11/11/2019,12:40,41-58.59N,142-50.15E,122,15.836,,8.05
762,11/11/2019,12:41,41-58.39N,142-50.54E,124,15.889,,8.05
763,11/11/2019,12:42,41-58.20N,142-50.92E,124,15.985,,8.05
764,11/11/2019,12:43,41-58.00N,142-51.31E,124,16.096,,8.05
765,11/11/2019,12:44,41-57.79N,142-51.70E,125,16.145,,8.05
766,11/11/2019,12:45,41-57.59N,142-52.08E,125,16.132,,8.05
767,11/11/2019,12:46,41-57.38N,142-52.46E,126,16.119,,8.05
768,11/11/2019,12:47,41-57.16N,142-52.85E,126,16.165,,8.05
769,11/11/2019,12:48,41-56.96N,142-53.23E,126,16.2,,8.05
770,11/11/2019,12:49,41-56.74N,142-53.62E,126,16.231,,8.06
771,11/11/2019,12:50,41-56.54N,142-53.99E,126,16.249,,8.05
772,11/11/2019,12:51,41-56.32N,142-54.37E,126,16.241,,8.06
773,11/11/2019,12:52,41-56.11N,142-54.75E,127,16.172,,8.06
774,11/11/2019,12:53,41-55.89N,142-55.13E,126,16.03,,8.06
775,11/11/2019,12:54,41-55.68N,142-55.51E,127,15.889,,8.06
776,11/11/2019,12:55,41-55.47N,142-55.88E,126,15.756,,8.06
777,11/11/2019,12:56,41-55.24N,142-56.29E,127,15.609,,8.06
778,11/11/2019,12:57,41-55.03N,142-56.65E,127,15.466,,8.06
779,11/11/2019,12:58,41-54.80N,142-57.04E,127,15.328,,8.06
780,11/11/2019,12:59,41-54.58N,142-57.43E,128,15.02,,8.06
781,11/11/2019,13:00,41-54.36N,142-57.82E,127,14.319,,8.05
782,11/11/2019,13:01,41-54.14N,142-58.20E,126,14.075,,8.06
783,11/11/2019,13:02,41-53.92N,142-58.64E,124,13.971,,8.05
784,11/11/2019,13:03,41-53.73N,142-58.99E,123,13.876,,8.05
785,11/11/2019,13:04,41-53.53N,142-59.40E,124,13.729,,8.04
786,11/11/2019,13:05,41-53.33N,142-59.79E,123,13.612,,8.04
787,11/11/2019,13:06,41-53.14N,143-00.17E,123,13.375,,8.04
788,11/11/2019,13:07,41-52.96N,143-00.58E,120,13.358,,8.04
789,11/11/2019,13:08,41-52.76N,143-01.02E,120,13.8,,8.03
790,11/11/2019,13:09,41-52.58N,143-01.42E,120,14.172,,8.03
791,11/11/2019,13:10,41-52.41N,143-01.80E,121,14.402,,8.03
792,11/11/2019,13:11,41-52.22N,143-02.23E,120,14.893,,8.03
793,11/11/2019,13:12,41-52.04N,143-02.65E,119,15.341,,8.03
794,11/11/2019,13:13,41-51.86N,143-03.07E,120,15.651,,8.03
795,11/11/2019,13:14,41-51.67N,143-03.49E,120,15.82,,8.04
796,11/11/2019,13:15,41-51.49N,143-03.92E,120,15.925,,8.04
797,11/11/2019,13:16,41-51.30N,143-04.35E,120,15.971,,8.05
798,11/11/2019,13:17,41-51.11N,143-04.79E,119,15.989,,8.05
799,11/11/2019,13:18,41-50.92N,143-05.22E,120,16.022,,8.05
800,11/11/2019,13:19,41-50.74N,143-05.63E,120,16.045,,8.05
801,11/11/2019,13:20,41-50.53N,143-06.09E,120,16.044,,8.05
802,11/11/2019,13:21,41-50.35N,143-06.50E,120,16.033,,8.05
803,11/11/2019,13:22,41-50.17N,143-06.91E,121,16.006,,8.05
804,11/11/2019,13:23,41-49.97N,143-07.34E,121,15.966,,8.06
805,11/11/2019,13:24,41-49.77N,143-07.78E,120,15.951,,8.06
806,11/11/2019,13:25,41-49.60N,143-08.18E,118,15.933,,8.06
807,11/11/2019,13:26,41-49.45N,143-08.64E,112,15.859,,8.05
808,11/11/2019,13:27,41-49.32N,143-09.09E,110,15.665,,8.05
809,11/11/2019,13:28,41-49.20N,143-09.54E,109,14.234,,8.06
810,11/11/2019,13:29,41-49.07N,143-10.01E,109,12.696,,8.06
811,11/11/2019,13:30,41-48.96N,143-10.46E,108,12.407,,8.06
812,11/11/2019,13:31,41-48.85N,143-10.90E,108,11.821,,8.05
813,11/11/2019,13:32,41-48.74N,143-11.34E,107,11.449,,8.03
814,11/11/2019,13:33,41-48.63N,143-11.81E,107,11.422,,8.01
815,11/11/2019,13:34,41-48.53N,143-12.23E,108,11.478,,8
816,11/11/2019,13:35,41-48.41N,143-12.69E,108,11.521,,7.98
817,11/11/2019,13:36,41-48.31N,143-13.11E,107,11.533,,7.98
818,11/11/2019,13:37,41-48.20N,143-13.54E,108,11.543,,7.98
819,11/11/2019,13:38,41-48.09N,143-14.00E,107,11.558,,7.98
820,11/11/2019,13:39,41-47.98N,143-14.42E,108,11.543,,7.98
821,11/11/2019,13:40,41-47.87N,143-14.86E,108,11.541,,7.97
822,11/11/2019,13:41,41-47.76N,143-15.31E,107,11.547,,7.97
823,11/11/2019,13:42,41-47.66N,143-15.75E,107,11.539,,7.97
824,11/11/2019,13:43,41-47.54N,143-16.19E,107,11.546,,7.97
825,11/11/2019,13:44,41-47.43N,143-16.64E,107,11.568,,7.97
826,11/11/2019,13:45,41-47.32N,143-17.08E,108,11.581,,7.98
827,11/11/2019,13:46,41-47.21N,143-17.52E,108,11.594,,7.97
828,11/11/2019,13:47,41-47.10N,143-17.96E,108,11.602,,7.97
829,11/11/2019,13:48,41-47.01N,143-18.40E,99,11.613,,7.97
830,11/11/2019,13:49,41-47.09N,143-18.85E,62,11.618,,7.96
831,11/11/2019,13:50,41-47.34N,143-19.12E,31,11.632,,7.96
832,11/11/2019,13:51,41-47.64N,143-19.34E,27,11.633,,7.97
833,11/11/2019,13:52,41-47.99N,143-19.60E,28,11.638,,7.97
834,11/11/2019,13:53,41-48.27N,143-19.84E,33,11.644,,7.97
835,11/11/2019,13:54,41-48.57N,143-20.09E,32,11.637,,7.96
836,11/11/2019,13:55,41-48.90N,143-20.38E,31,11.639,,7.97
837,11/11/2019,13:56,41-49.19N,143-20.59E,29,11.634,,7.96
838,11/11/2019,13:57,41-49.51N,143-20.84E,28,11.62,,7.97
839,11/11/2019,13:58,41-49.81N,143-21.08E,30,11.595,,7.97
840,11/11/2019,13:59,41-50.14N,143-21.32E,30,11.6,,7.97
841,11/11/2019,14:00,41-50.46N,143-21.57E,29,11.559,,7.96
842,11/11/2019,14:01,41-50.77N,143-21.81E,30,11.509,,7.97
843,11/11/2019,14:02,41-51.08N,143-22.07E,31,11.489,,7.96
844,11/11/2019,14:03,41-51.40N,143-22.32E,30,---,,7.97
845,11/11/2019,14:04,41-51.71N,143-22.57E,30,11.467,,7.97
846,11/11/2019,14:05,41-52.03N,143-22.82E,30,11.451,,7.97
847,11/11/2019,14:06,41-52.34N,143-23.07E,30,11.44,,7.97
848,11/11/2019,14:07,41-52.65N,143-23.33E,31,11.394,,7.97
849,11/11/2019,14:08,41-52.95N,143-23.58E,32,11.384,,7.97
850,11/11/2019,14:09,41-53.26N,143-23.84E,31,11.435,,7.97
851,11/11/2019,14:10,41-53.57N,143-24.08E,31,11.462,,7.97
852,11/11/2019,14:11,41-53.89N,143-24.35E,31,11.491,,7.96
853,11/11/2019,14:12,41-54.19N,143-24.59E,31,11.495,,7.97
854,11/11/2019,14:13,41-54.50N,143-24.85E,31,11.514,,7.97
855,11/11/2019,14:14,41-54.82N,143-25.12E,32,11.53,,7.98
856,11/11/2019,14:15,41-55.12N,143-25.37E,31,11.545,,7.98
857,11/11/2019,14:16,41-55.43N,143-25.63E,32,11.562,,7.97
858,11/11/2019,14:17,41-55.73N,143-25.88E,32,11.576,,7.97
859,11/11/2019,14:18,41-56.04N,143-26.14E,30,11.592,,7.98
860,11/11/2019,14:19,41-56.33N,143-26.38E,31,11.607,,7.98
861,11/11/2019,14:20,41-56.64N,143-26.63E,31,11.604,,7.98
862,11/11/2019,14:21,41-56.95N,143-26.89E,32,11.607,,7.97
863,11/11/2019,14:22,41-57.25N,143-27.14E,31,11.608,,7.98
864,11/11/2019,14:23,41-57.56N,143-27.38E,31,11.599,,7.98
865,11/11/2019,14:24,41-57.86N,143-27.63E,30,11.591,,7.98
866,11/11/2019,14:25,41-58.16N,143-27.89E,33,11.566,,7.98
867,11/11/2019,14:26,41-58.47N,143-28.14E,31,11.555,,7.98
868,11/11/2019,14:27,41-58.77N,143-28.40E,32,11.554,,7.98
869,11/11/2019,14:28,41-59.09N,143-28.66E,31,11.552,,7.98
870,11/11/2019,14:29,41-59.39N,143-28.90E,30,11.557,,7.99
871,11/11/2019,14:30,41-59.70N,143-29.14E,30,11.551,,7.99
872,11/11/2019,14:31,41-59.99N,143-29.38E,31,11.543,,7.99
873,11/11/2019,14:32,42-00.29N,143-29.63E,32,11.524,,7.99
874,11/11/2019,14:33,42-00.59N,143-29.88E,32,11.48,,7.98
875,11/11/2019,14:34,42-00.89N,143-30.13E,30,11.438,,7.98
876,11/11/2019,14:35,42-01.20N,143-30.37E,31,11.409,,7.99
877,11/11/2019,14:36,42-01.51N,143-30.62E,30,11.396,,7.99
878,11/11/2019,14:37,42-01.79N,143-30.85E,30,11.389,,7.99
879,11/11/2019,14:38,42-02.10N,143-31.10E,31,11.375,,7.99
880,11/11/2019,14:39,42-02.39N,143-31.33E,31,11.37,,7.99
881,11/11/2019,14:40,42-02.73N,143-31.61E,31,11.377,,7.98
882,11/11/2019,14:41,42-02.99N,143-31.83E,31,11.372,,7.98
883,11/11/2019,14:42,42-03.30N,143-32.08E,30,11.386,,7.98
884,11/11/2019,14:43,42-03.61N,143-32.32E,29,11.392,,7.98
885,11/11/2019,14:44,42-03.93N,143-32.55E,29,11.386,,7.98
886,11/11/2019,14:45,42-04.23N,143-32.77E,28,11.381,,7.98
887,11/11/2019,14:46,42-04.54N,143-33.01E,29,11.385,,7.98
888,11/11/2019,14:47,42-04.84N,143-33.23E,28,11.387,,7.98
889,11/11/2019,14:48,42-05.15N,143-33.46E,28,11.372,,7.98
890,11/11/2019,14:49,42-05.45N,143-33.67E,27,11.376,,7.98
891,11/11/2019,14:50,42-05.76N,143-33.90E,29,11.374,,7.98
892,11/11/2019,14:51,42-06.07N,143-34.13E,29,11.38,,7.98
893,11/11/2019,14:52,42-06.38N,143-34.36E,29,11.384,,8
894,11/11/2019,14:53,42-06.70N,143-34.60E,29,11.382,,7.98
895,11/11/2019,14:54,42-06.98N,143-34.82E,29,11.392,,7.98
896,11/11/2019,14:55,42-07.29N,143-35.05E,29,11.397,,7.98
897,11/11/2019,14:56,42-07.61N,143-35.31E,30,11.411,,7.98
898,11/11/2019,14:57,42-07.91N,143-35.54E,30,11.414,,7.98
899,11/11/2019,14:58,42-08.22N,143-35.77E,28,---,,7.98
900,11/11/2019,14:59,42-08.53N,143-36.00E,29,11.409,,7.98
901,11/11/2019,15:00,42-08.81N,143-36.21E,28,11.421,,7.98
902,11/11/2019,15:01,42-09.16N,143-36.48E,30,11.422,,7.98
903,11/11/2019,15:02,42-09.47N,143-36.71E,29,11.409,,7.98
904,11/11/2019,15:03,42-09.74N,143-36.93E,29,11.411,,7.98
905,11/11/2019,15:04,42-10.03N,143-37.15E,30,11.41,,7.98
906,11/11/2019,15:05,42-10.34N,143-37.39E,30,11.412,,7.99
907,11/11/2019,15:06,42-10.65N,143-37.63E,29,11.418,,7.98
908,11/11/2019,15:07,42-11.00N,143-37.91E,31,11.415,,7.99
909,11/11/2019,15:08,42-11.30N,143-38.15E,30,11.411,,7.98
910,11/11/2019,15:09,42-11.60N,143-38.39E,31,11.397,,7.98
911,11/11/2019,15:10,42-11.89N,143-38.62E,30,11.39,,7.98
912,11/11/2019,15:11,42-12.20N,143-38.85E,29,11.384,,7.98
913,11/11/2019,15:12,42-12.50N,143-39.08E,30,11.378,,7.98
914,11/11/2019,15:13,42-12.80N,143-39.31E,30,11.369,,7.98
915,11/11/2019,15:14,42-13.05N,143-39.52E,30,11.366,,7.98
916,11/11/2019,15:15,42-13.35N,143-39.75E,30,11.364,,7.99
917,11/11/2019,15:16,42-13.68N,143-40.02E,31,11.355,,7.99
918,11/11/2019,15:17,42-13.95N,143-40.24E,30,11.356,,7.99
919,11/11/2019,15:18,42-14.28N,143-40.50E,31,11.343,,7.99
920,11/11/2019,15:19,42-14.57N,143-40.74E,30,11.319,,7.98
921,11/11/2019,15:20,42-14.86N,143-40.96E,29,11.232,,7.98
922,11/11/2019,15:21,42-15.16N,143-41.20E,30,---,,7.99
923,11/11/2019,15:22,42-15.45N,143-41.43E,31,11.081,,7.99
924,11/11/2019,15:23,42-15.74N,143-41.67E,31,11.063,,7.98
925,11/11/2019,15:24,42-16.07N,143-41.92E,30,11.057,,7.98
926,11/11/2019,15:25,42-16.37N,143-42.16E,31,11.106,,7.98
927,11/11/2019,15:26,42-16.66N,143-42.40E,29,11.129,,7.98
928,11/11/2019,15:27,42-16.96N,143-42.64E,29,11.116,,7.97
929,11/11/2019,15:28,42-17.27N,143-42.87E,29,11.104,,7.98
930,11/11/2019,15:29,42-17.58N,143-43.11E,29,11.109,,7.98
931,11/11/2019,15:30,42-17.89N,143-43.35E,29,11.089,,7.98
932,11/11/2019,15:31,42-18.17N,143-43.57E,30,11.089,,7.98
933,11/11/2019,15:32,42-18.49N,143-43.82E,30,11.112,,7.99
934,11/11/2019,15:33,42-18.77N,143-44.04E,30,11.11,,7.99
935,11/11/2019,15:34,42-19.09N,143-44.29E,29,11.139,,8
936,11/11/2019,15:35,42-19.42N,143-44.55E,30,11.147,,8
937,11/11/2019,15:36,42-19.67N,143-44.74E,29,11.132,,8
938,11/11/2019,15:37,42-19.99N,143-44.99E,29,11.086,,8
939,11/11/2019,15:38,42-20.29N,143-45.21E,29,11.087,,8
940,11/11/2019,15:39,42-20.60N,143-45.46E,30,11.071,,7.99
941,11/11/2019,15:40,42-20.90N,143-45.70E,29,11.071,,7.99
942,11/11/2019,15:41,42-21.19N,143-45.93E,30,11.187,,7.98
943,11/11/2019,15:42,42-21.50N,143-46.17E,28,11.134,,7.98
944,11/11/2019,15:43,42-21.79N,143-46.37E,27,11.062,,7.98
945,11/11/2019,15:44,42-22.11N,143-46.60E,28,10.966,,7.98
946,11/11/2019,15:45,42-22.42N,143-46.84E,28,10.843,,7.98
947,11/11/2019,15:46,42-22.77N,143-47.09E,27,10.803,,7.98
948,11/11/2019,15:47,42-23.06N,143-47.31E,29,10.79,,7.99
949,11/11/2019,15:48,42-23.36N,143-47.53E,28,10.8,,7.99
950,11/11/2019,15:49,42-23.70N,143-47.78E,28,10.829,,8
951,11/11/2019,15:50,42-23.97N,143-47.99E,29,10.849,,8.01
952,11/11/2019,15:51,42-24.29N,143-48.23E,28,10.883,,8.01
953,11/11/2019,15:52,42-24.60N,143-48.46E,29,10.894,,8
954,11/11/2019,15:53,42-24.96N,143-48.74E,28,10.906,,8.01
955,11/11/2019,15:54,42-25.22N,143-48.92E,28,10.914,,8.01
956,11/11/2019,15:55,42-25.53N,143-49.15E,28,10.929,,8.01
957,11/11/2019,15:56,42-25.84N,143-49.37E,28,10.934,,8
958,11/11/2019,15:57,42-26.16N,143-49.61E,28,10.966,,8
959,11/11/2019,15:58,42-26.46N,143-49.84E,28,10.961,,8
960,11/11/2019,15:59,42-26.77N,143-50.06E,28,10.986,,8
961,11/11/2019,16:00,42-27.12N,143-50.31E,28,10.983,,8
962,11/11/2019,16:01,42-27.39N,143-50.52E,28,10.984,,7.99